PST,Max TemperatureF,Mean TemperatureF,Min TemperatureF,Max Dew PointF,MeanDew PointF,Min DewpointF,Max Humidity, Mean Humidity, Min Humidity, Max Sea Level PressureIn, Mean Sea Level PressureIn, Min Sea Level PressureIn, Max VisibilityMiles, Mean VisibilityMiles, Min VisibilityMiles, Max Wind SpeedMPH, Mean Wind SpeedMPH, Max Gust SpeedMPH,PrecipitationIn, CloudCover, Events, WindDirDegrees
2014-1-1,48,33,17,25,20,15,92,73,38,30.43,30.35,30.30,10,10,10,9,2,12,0.00,0,,345
2014-1-2,51,34,16,27,22,15,96,75,38,30.39,30.29,30.17,10,10,10,7,0,8,0.00,0,,-1
2014-1-3,55,37,19,30,25,18,96,74,35,30.20,30.14,30.04,10,10,10,16,4,18,0.00,1,,282
2014-1-4,40,26,11,22,14,9,92,68,30,30.45,30.34,30.12,10,10,10,12,4,14,0.00,0,,339
2014-1-5,45,27,8,16,9,4,84,57,18,30.56,30.46,30.38,10,10,8,9,2,10,0.00,0,,350
2014-1-6,40,28,16,29,15,10,80,59,30,30.44,30.35,30.23,10,10,10,9,2,12,T,3,Rain,291
2014-1-7,45,37,29,41,32,29,100,87,62,30.21,30.15,30.08,10,10,8,10,2,14,0.01,7,Rain,203
2014-1-8,46,37,28,35,32,28,96,78,58,30.19,30.08,30.01,10,10,6,18,8,25,0.02,6,Rain,219
2014-1-9,40,36,32,34,30,23,96,81,50,30.17,30.11,30.01,10,10,8,30,12,36,T,5,Snow,269
2014-1-10,44,38,31,33,29,24,89,69,53,30.23,30.17,30.09,10,10,6,23,5,31,T,4,Rain,201
2014-1-11,45,38,30,37,31,26,92,84,62,30.15,29.99,29.87,10,6,0,28,16,33,0.04,6,Fog-Rain-Snow,248
2014-1-12,36,31,25,31,28,26,92,90,82,30.59,30.41,30.16,10,9,1,25,7,30,0.03,6,,227
2014-1-13,34,30,26,32,30,26,100,98,92,30.74,30.62,30.52,10,3,0,12,4,14,0.00,8,Fog,25
2014-1-14,30,26,22,28,24,20,100,94,88,30.81,30.70,30.63,5,1,0,8,1,10,T,8,Fog-Snow,357
2014-1-15,30,26,21,28,23,19,100,94,88,30.76,30.64,30.52,2,0,0,5,1,6,0.00,8,Fog,24
2014-1-16,42,31,19,31,22,17,100,90,64,30.64,30.52,30.38,10,3,0,7,1,7,0.00,5,Fog,330
2014-1-17,48,31,14,27,20,13,100,82,39,30.48,30.40,30.31,10,7,1,8,2,9,0.00,0,,314
2014-1-18,50,33,16,27,21,15,100,73,32,30.41,30.32,30.24,10,10,8,9,2,10,0.00,0,,328
2014-1-19,50,33,16,28,22,14,91,76,39,30.31,30.27,30.20,10,10,8,6,1,6,0.00,0,,312
2014-1-20,50,33,16,27,21,14,92,74,39,30.42,30.37,30.30,10,10,3,12,2,14,0.00,0,,339
2014-1-21,53,33,13,25,18,10,92,70,24,30.48,30.40,30.33,10,10,8,9,0,9,0.00,0,,305
2014-1-22,52,33,13,24,19,12,92,64,28,30.38,30.28,30.20,10,10,8,15,3,16,0.00,0,,18
2014-1-23,54,40,25,25,21,19,85,52,26,30.33,30.24,30.16,10,10,10,23,9,29,0.00,0,,58
2014-1-24,58,41,23,21,18,15,81,47,19,30.40,30.35,30.30,10,10,10,15,9,23,0.00,0,,39
2014-1-25,53,35,17,22,19,16,84,62,26,30.48,30.38,30.31,10,10,10,12,5,19,0.00,0,,342
2014-1-26,57,37,16,24,19,14,92,66,22,30.32,30.23,30.12,10,10,10,7,1,8,0.00,0,,8
2014-1-27,43,31,19,33,24,17,92,74,49,30.28,30.23,30.14,10,10,9,9,2,11,T,5,Rain,7
2014-1-28,45,40,34,40,37,32,100,91,82,30.28,30.22,30.13,10,8,2,7,2,8,0.16,8,Rain,22
2014-1-29,48,42,35,45,37,29,100,89,73,30.12,30.01,29.94,10,6,0,36,8,49,0.05,7,Fog-Rain,273
2014-1-30,40,32,24,31,27,20,92,79,54,29.95,29.91,29.85,10,10,10,15,5,17,0.00,2,,289
2014-1-31,36,26,15,24,19,14,92,78,52,30.15,30.08,29.96,10,10,9,14,3,18,T,1,,270